[[{"header":{"parameterUnit":"m.s-1","parameterCategory":1,"la1":30.2991,"la2":30.254,"lo1":-89.0895,"lo2":-89.0444,"dy":0.0017,"dx":0.0017,"nx":28,"ny":28,"refTime":"2023-03-18T21:00:00:Z","depth":0,"parameterNumber":2,"parameterNumberName":"U-component_of_WINDS"},"data":[0,0,0,0,0,0,0,0,0,0,0,0,0,0,0,0,0,0,0,0,0,0,0,0,0,0,0,0,0,0,0,0,0,0,0,0,0,0,0,0,0,0,0,0,0,0,0,0,0,0,0,0,0,0,0,0,0,0,-3.8331,-3.8331,0,-3.8341,-3.8341,-3.8342,-3.8255,-3.8252,-3.825,-3.8247,-3.8258,-3.826,-3.8263,0,0,0,0,0,0,0,0,0,0,0,0,0,-3.8236,-3.8238,-3.8331,-3.8331,-3.8331,-3.8341,-3.8341,-3.8342,-3.8255,-3.8252,-3.8249,-3.8246,-3.8257,-3.826,-3.8263,0,0,0,0,0,0,0,0,0,0,0,0,0,-3.8265,-3.8239,-3.8331,-3.8289,-3.8286,-3.8341,-3.8341,-3.8342,-3.8256,-3.8252,-3.8248,-3.8245,-3.8256,-3.826,-3.8263,-3.8359,0,0,-3.8275,-3.8277,0,0,0,0,0,0,0,0,-3.8263,-3.8268,-3.8295,-3.8292,-3.8288,-3.8293,-3.8312,-3.8348,-3.8256,-3.8267,-3.8247,-3.8243,-3.8272,-3.8275,-3.8284,-3.836,-3.836,-3.8275,-3.8278,-3.8279,-3.828,0,0,0,0,0,0,0,-3.8261,-3.8268,-3.8335,-3.8296,-3.8292,-3.827,-3.827,-3.8318,-3.829,-3.8266,-3.8259,-3.8262,-3.827,-3.8281,-3.8284,-3.836,-3.8275,-3.8279,-3.8281,-3.8282,-3.8515,-3.8519,0,0,0,0,0,0,-3.8265,-3.8266,-3.8335,-3.8335,-3.8267,-3.8275,-3.8275,-3.8295,-3.8289,-3.8285,-3.8265,-3.8258,-3.8276,-3.828,-3.8284,-3.8396,-3.8279,-3.8283,-3.8285,-3.8511,-3.8516,-3.852,0,0,0,0,0,0,-3.8263,-3.8272,-3.8334,-3.8299,-3.8305,-3.828,-3.8304,-3.8297,-3.8308,-3.8289,-3.8283,-3.8282,-3.8274,-3.8279,-3.8341,-3.8395,-3.8284,-3.8288,-3.8507,-3.8513,-3.8518,-3.8622,0,0,0,0,0,0,-3.8261,-3.8272,-3.8308,-3.8301,-3.8308,-3.8392,-3.8307,-3.83,-3.8315,-3.8306,-3.8303,-3.8299,-3.8271,-3.8336,-3.8345,-3.8399,-3.8291,-3.8502,-3.8509,-3.8516,-3.8613,-3.863,-3.8645,0,0,0,0,0,-3.8258,-3.8337,-3.8311,-3.8319,-3.8353,-3.8395,-3.8399,-3.8366,-3.832,-3.8356,-3.8343,-3.8299,-3.8388,-3.8343,-3.8353,-3.8408,-3.8498,-3.8507,-3.8516,-3.8606,-3.8627,-3.8645,0,0,0,0,0,0,-3.8351,-3.8335,-3.8306,-3.8385,-3.8392,-3.838,-3.8425,-3.8389,-3.8409,-3.84,-3.8357,-3.8357,-3.8427,-3.8423,-3.8374,-3.8501,-3.8435,-3.8446,-3.8501,-3.852,-3.8536,-3.8535,-3.8294,0,0,0,0,0,-3.8381,-3.8417,-3.8401,-3.8472,-3.8477,-3.8451,-3.8468,-3.8442,-3.8448,-3.845,-3.8442,-3.8449,-3.8479,-3.8499,-3.8525,-3.8612,-3.861,-3.8655,-3.8671,-3.8684,-3.8694,-3.874,-3.876,-3.8549,-3.8549,-3.8549,0,0,-3.8443,-3.8439,-3.8464,-3.8491,-3.8493,-3.8532,-3.8454,-3.8498,-3.8526,-3.8457,-3.8516,-3.851,-3.8515,-3.8591,-3.8623,-3.859,-3.8752,-3.8695,-3.8706,-3.8709,-3.8751,-3.8771,-3.8789,-3.8555,-3.8554,-3.8553,0,0,-3.8576,-3.8576,-3.8636,-3.864,-3.8645,-3.8626,-3.8641,-3.8635,-3.8629,-3.8687,-3.8636,-3.8668,-3.872,-3.8726,-3.8736,-3.8871,-3.8831,-3.8881,-3.8963,-3.9009,-3.9025,-3.904,-3.9088,-3.9106,-3.8891,-3.8891,-3.8891,0,-3.8652,-3.8708,-3.8671,-3.8718,-3.8731,-3.8671,-3.8731,-3.8736,-3.875,-3.876,-3.8723,-3.8786,-3.8786,-3.8862,-3.8895,-3.8905,-3.892,-3.8881,-3.9026,-3.904,-3.9053,-3.9099,-3.9117,-3.8897,-3.8896,-3.8896,-3.8895,0,-3.8802,-3.8841,-3.8889,-3.8903,-3.8922,-3.8975,-3.8946,-3.8969,-3.8941,-3.8927,-3.8987,-3.8984,-3.9009,-3.9025,-3.8998,-3.9097,-3.9076,-3.9033,-3.8966,-3.908,-3.9122,-3.9139,-3.8906,-3.8904,-3.8902,-3.89,0,0,-3.8994,-3.8987,-3.9005,-3.9011,-3.9012,-3.9042,-3.9093,-3.9117,-3.9138,-3.9149,-3.919,-3.9235,-3.9195,-3.9207,-3.918,-3.922,-3.9327,-3.9171,-3.917,-3.92,-3.9437,-3.947,-3.9491,-3.93,-3.9303,-3.9306,-3.9436,0,-3.9123,-3.921,-3.9178,-3.9266,-3.9302,-3.9245,-3.9289,-3.9295,-3.9283,-3.9312,-3.9298,-3.9331,-3.9276,-3.9282,-3.9319,-3.9306,-3.9374,-3.9296,-3.9339,-3.9341,-3.934,-3.9512,-3.9547,-3.9671,-3.9453,-3.9455,-3.9457,0,-3.9286,-3.9304,-3.9397,-3.9392,-3.9405,-3.9446,-3.9465,-3.9493,-3.9498,-3.9487,-3.95,-3.9464,-3.9513,-3.9446,-3.9514,-3.9462,-3.9477,-3.9473,-3.9477,-3.948,-3.9406,-3.9521,-3.9709,-3.9728,-3.9483,-3.9481,-3.9479,0,-3.9418,-3.9465,-3.9526,-3.9533,-3.9529,-3.9558,-3.9558,-3.9559,-3.9576,-3.9593,-3.9603,-3.9626,-3.9638,-3.9656,-3.9628,-3.9582,-3.9699,-3.963,-3.9691,-3.9692,-3.9719,-3.9718,-3.9913,-3.9729,-3.9728,-3.9728,-3.9728,0,-3.9566,-3.9625,-3.9585,-3.9623,-3.9687,-3.965,-3.9714,-3.9707,-3.9709,-3.9744,-3.9696,-3.9731,-3.9691,-3.9721,-3.9699,-3.9758,-3.9764,-3.9756,-3.975,-3.9761,-3.9762,-3.9771,-3.9761,-3.9733,-3.9732,-3.9731,-3.973,0,-3.9723,-3.9699,-3.9763,-3.9753,-3.9752,-3.98,-3.9792,-3.9827,-3.9811,-3.9857,-3.9865,-3.9841,-3.9875,-3.9848,-3.988,-3.9865,-3.9944,-3.9925,-3.9943,-3.9938,-4.0001,-3.9995,-4.0208,-4.0235,-4.0033,-4.0035,-4.0037,0,-3.982,-3.9864,-3.9859,-3.988,-3.9882,-3.9916,-3.9933,-3.9897,-3.9917,-3.9926,-3.9959,-3.9988,-4.001,-4.0066,-4.0051,-4.0076,-4.0058,-4.0131,-4.0061,-4.0071,-4.0059,-4.0057,-4.0061,-4.0145,-4.0147,-4.0149,-4.0151,0,-3.9994,-3.998,-4.0006,-4.0028,-4.005,-4.0065,-4.0077,-4.0097,-4.0061,-4.0085,-4.0118,-4.0135,-4.0169,-4.0198,-4.0218,-4.0217,-4.0179,-4.0173,-4.0188,-4.02,-4.0209,-4.0205,-3.9981,-4.0168,-4.0166,-4.0165,-4.0164,-4.0164,-4.0124,-4.016,-4.0163,-4.0194,-4.0199,-4.0211,-4.0244,-4.0232,-4.026,-4.0284,-4.0262,-4.0302,-4.0306,-4.0328,-4.0332,-4.0363,-4.0333,-4.0355,-4.0361,-4.0367,-4.0377,-4.0204,-4.0367,-4.0366,-4.0366,-4.0365,-4.0365,0,-4.0295,-4.0294,-4.0323,-4.0341,-4.0366,-4.0327,-4.0338,-4.0361,-4.0398,-4.0404,-4.0427,-4.0465,-4.0494,-4.0482,-4.0507,-4.0534,-4.0517,-4.0542,-4.054,-4.054,-4.0402,-4.0386,-4.0555,-4.0555,-4.0555,-4.0555,-4.0555,-4.0555,-4.0388,-4.0447,-4.0434,-4.0496,-4.0494,-4.0534,-4.0543,-4.0554,-4.056,-4.0605,-4.0629,-4.0621,-4.062,-4.0644,-4.0669,-4.0664,-4.0676,-4.0708,-4.0697,-4.0568,-4.055,-4.0532,-4.0517,-4.071,-4.0711,-4.0832,-4.0833,-4.0834]},{"header":{"parameterUnit":"m.s-1","parameterCategory":1,"la1":30.2991,"la2":30.254,"lo1":-89.0895,"lo2":-89.0444,"dy":0.0017,"dx":0.0017,"nx":28,"ny":28,"refTime":"2023-03-18T21:00:00:Z","depth":0,"parameterNumber":3,"parameterNumberName":"V-component_of_WINDS"},"data":[0,0,0,0,0,0,0,0,0,0,0,0,0,0,0,0,0,0,0,0,0,0,0,0,0,0,0,0,0,0,0,0,0,0,0,0,0,0,0,0,0,0,0,0,0,0,0,0,0,0,0,0,0,0,0,0,0,0,-3.7993,-3.7993,0,-3.8039,-3.804,-3.804,-3.8002,-3.8,-3.7999,-3.7997,-3.8043,-3.8045,-3.8048,0,0,0,0,0,0,0,0,0,0,0,0,0,-3.787,-3.7872,-3.7993,-3.7993,-3.7994,-3.8039,-3.804,-3.804,-3.8002,-3.8,-3.7998,-3.7996,-3.8042,-3.8045,-3.8048,0,0,0,0,0,0,0,0,0,0,0,0,0,-3.792,-3.7873,-3.7993,-3.7981,-3.798,-3.8039,-3.804,-3.804,-3.8003,-3.8,-3.7998,-3.7996,-3.8041,-3.8045,-3.8049,-3.8122,0,0,-3.8061,-3.8063,0,0,0,0,0,0,0,0,-3.7917,-3.7925,-3.7982,-3.7981,-3.7981,-3.8012,-3.8013,-3.8068,-3.8003,-3.7994,-3.7997,-3.7994,-3.8035,-3.8039,-3.8053,-3.8124,-3.8126,-3.8062,-3.8064,-3.8066,-3.8067,0,0,0,0,0,0,0,-3.7914,-3.7923,-3.8011,-3.7983,-3.7982,-3.7972,-3.7976,-3.8023,-3.8027,-3.7995,-3.7992,-3.7998,-3.8034,-3.8049,-3.8054,-3.8127,-3.8061,-3.8065,-3.8068,-3.8069,-3.8259,-3.8261,0,0,0,0,0,0,-3.7912,-3.792,-3.801,-3.8012,-3.7943,-3.7976,-3.7981,-3.8005,-3.8026,-3.8027,-3.8,-3.7996,-3.8043,-3.8049,-3.8055,-3.8142,-3.8066,-3.807,-3.8072,-3.8256,-3.8259,-3.8262,0,0,0,0,0,0,-3.7909,-3.792,-3.8008,-3.7965,-3.7976,-3.7981,-3.8007,-3.8007,-3.8022,-3.8031,-3.8031,-3.8015,-3.8042,-3.8049,-3.8105,-3.8143,-3.8071,-3.8075,-3.8253,-3.8257,-3.8261,-3.8316,0,0,0,0,0,0,-3.7906,-3.792,-3.7948,-3.7966,-3.7978,-3.8058,-3.801,-3.8009,-3.8029,-3.8024,-3.8045,-3.8046,-3.804,-3.81,-3.8109,-3.8147,-3.8078,-3.825,-3.8255,-3.826,-3.8311,-3.8321,-3.833,0,0,0,0,0,-3.7902,-3.7961,-3.795,-3.7961,-3.8014,-3.806,-3.8067,-3.806,-3.8032,-3.8061,-3.8066,-3.8045,-3.8137,-3.8106,-3.8116,-3.8156,-3.8248,-3.8254,-3.8259,-3.8306,-3.8319,-3.833,0,0,0,0,0,0,-3.7947,-3.7964,-3.7951,-3.8018,-3.8038,-3.8054,-3.8089,-3.8074,-3.8102,-3.8096,-3.8086,-3.8091,-3.815,-3.8158,-3.8123,-3.8227,-3.8188,-3.8196,-3.822,-3.8232,-3.8241,-3.8238,-3.8082,0,0,0,0,0,-3.7965,-3.8002,-3.8014,-3.8072,-3.8083,-3.8085,-3.8105,-3.8097,-3.8118,-3.8126,-3.8135,-3.8155,-3.8188,-3.821,-3.8241,-3.8311,-3.8315,-3.8343,-3.8353,-3.8361,-3.8368,-3.8406,-3.8418,-3.8282,-3.8282,-3.8281,0,0,-3.8002,-3.8016,-3.804,-3.8082,-3.8096,-3.8134,-3.8092,-3.8134,-3.8162,-3.8132,-3.8186,-3.8193,-3.8214,-3.8278,-3.8306,-3.8286,-3.8407,-3.8368,-3.8375,-3.8378,-3.8413,-3.8426,-3.8437,-3.8286,-3.8285,-3.8284,0,0,-3.8089,-3.8103,-3.8153,-3.8169,-3.8192,-3.8192,-3.8204,-3.8222,-3.8226,-3.828,-3.8258,-3.829,-3.8348,-3.8364,-3.838,-3.8472,-3.8454,-3.8482,-3.8533,-3.8569,-3.858,-3.859,-3.8622,-3.8634,-3.849,-3.849,-3.849,0,-3.8132,-3.8189,-3.8181,-3.8225,-3.8243,-3.8218,-3.8268,-3.8283,-3.8315,-3.8328,-3.8306,-3.8378,-3.839,-3.8457,-3.8479,-3.8493,-3.8506,-3.848,-3.8579,-3.8589,-3.8597,-3.8629,-3.8641,-3.8493,-3.8493,-3.8492,-3.8492,0,-3.8241,-3.8281,-3.8318,-3.835,-3.8373,-3.842,-3.8418,-3.8442,-3.8432,-3.8435,-3.8489,-3.8503,-3.8537,-3.8552,-3.8543,-3.8617,-3.8604,-3.8581,-3.8541,-3.8614,-3.8643,-3.8655,-3.8498,-3.8497,-3.8496,-3.8495,0,0,-3.8359,-3.8385,-3.8399,-3.8413,-3.8436,-3.8466,-3.8511,-3.8544,-3.8564,-3.8587,-3.8624,-3.8673,-3.8651,-3.8669,-3.8661,-3.8693,-3.8765,-3.8666,-3.8666,-3.8684,-3.8848,-3.8865,-3.8879,-3.8753,-3.8755,-3.8757,-3.8846,0,-3.8447,-3.8526,-3.852,-3.8594,-3.863,-3.8607,-3.8646,-3.8663,-3.8667,-3.8697,-3.8701,-3.8736,-3.8705,-3.8715,-3.8746,-3.875,-3.8798,-3.8744,-3.8787,-3.8789,-3.8783,-3.8895,-3.8913,-3.8997,-3.8857,-3.8859,-3.886,0,-3.8561,-3.8588,-3.8666,-3.8683,-3.8698,-3.8734,-3.8763,-3.8793,-3.8812,-3.8812,-3.8832,-3.8818,-3.8863,-3.8822,-3.8883,-3.8846,-3.8863,-3.8868,-3.8871,-3.8875,-3.883,-3.8902,-3.9023,-3.9035,-3.8878,-3.8877,-3.8876,0,-3.8639,-3.8694,-3.8748,-3.8761,-3.8782,-3.8808,-3.8817,-3.8834,-3.8854,-3.888,-3.8892,-3.8922,-3.8939,-3.8962,-3.8957,-3.8928,-3.9019,-3.8978,-3.902,-3.9021,-3.9041,-3.904,-3.9167,-3.9052,-3.9052,-3.9051,-3.9051,0,-3.8738,-3.8787,-3.8784,-3.8817,-3.8871,-3.8862,-3.8915,-3.8922,-3.8937,-3.8971,-3.8951,-3.8983,-3.8975,-3.9006,-3.9002,-3.9053,-3.906,-3.9061,-3.906,-3.9063,-3.9063,-3.9075,-3.9069,-3.9055,-3.9054,-3.9053,-3.9053,0,-3.8835,-3.8835,-3.8892,-3.8907,-3.8912,-3.8951,-3.8964,-3.8995,-3.8996,-3.9039,-3.9048,-3.905,-3.9086,-3.9083,-3.9123,-3.9121,-3.9184,-3.9175,-3.9177,-3.9176,-3.9218,-3.9215,-3.9358,-3.9376,-3.9249,-3.925,-3.9251,0,-3.8899,-3.8936,-3.8955,-3.8976,-3.8988,-3.9023,-3.9043,-3.9035,-3.9057,-3.9082,-3.911,-3.9144,-3.9171,-3.9228,-3.9233,-3.9264,-3.9256,-3.9304,-3.926,-3.9263,-3.9257,-3.9255,-3.9258,-3.9312,-3.9314,-3.9315,-3.9316,0,-3.9012,-3.901,-3.904,-3.9071,-3.9096,-3.9119,-3.914,-3.9159,-3.9153,-3.9178,-3.9215,-3.9236,-3.9277,-3.931,-3.9339,-3.9348,-3.9331,-3.933,-3.9341,-3.9345,-3.9345,-3.9346,-3.9201,-3.9326,-3.9325,-3.9325,-3.9324,-3.9324,-3.9094,-3.9126,-3.9144,-3.9179,-3.9194,-3.9214,-3.9244,-3.9249,-3.928,-3.9313,-3.9306,-3.9347,-3.9364,-3.9401,-3.9413,-3.9445,-3.9427,-3.9444,-3.9448,-3.9453,-3.9458,-3.934,-3.945,-3.9449,-3.9449,-3.9449,-3.9449,0,-3.9206,-3.9217,-3.9248,-3.9279,-3.9306,-3.9288,-3.931,-3.9334,-3.937,-3.9388,-3.9415,-3.9457,-3.9489,-3.9496,-3.9527,-3.9551,-3.9544,-3.9559,-3.9558,-3.956,-3.9471,-3.9458,-3.9565,-3.9565,-3.9565,-3.9565,-3.9564,-3.9564,-3.9268,-3.932,-3.932,-3.938,-3.939,-3.9431,-3.9445,-3.9463,-3.9477,-3.9525,-3.9552,-3.9557,-3.957,-3.9602,-3.9631,-3.9632,-3.9644,-3.9663,-3.9661,-3.9578,-3.9566,-3.9555,-3.9543,-3.9666,-3.9666,-3.9747,-3.9748,-3.9749]}]]